Jackson, KY

12:39 PM EDT on June 29, 2017 (GMT -0400)
Carroll

Weather History for KJKL - October, 2014

Change the Weather History Date:

Thursday, October 23, 2014

  Actual Average Record
Temperature  
Mean Temperature 52 °F 56 °F  
Max Temperature 59 °F 66 °F 80 °F (2001)
Min Temperature 45 °F 46 °F 29 °F (1997)
Degree Days  
Heating Degree Days 13 9  
Month to date heating degree days 186 160  
Since 1 July heating degree days 222 212  
Cooling Degree Days 0 1  
Month to date cooling degree days 17 29  
Year to date cooling degree days 1163 1150  
Growing Degree Days 2 (Base 50)    
Moisture  
Dew Point 39 °F    
Average Humidity 67    
Maximum Humidity 86    
Minimum Humidity 47    
Precipitation  
Precipitation 0.00 in 0.11 in 2.32 in (2007)
Month to date precipitation 6.45 2.30  
Year to date precipitation 47.10 39.31  
Snow  
Snow 0.00 in 0.00 in T in (2006)
Month to date snowfall 0.0 0.0  
Since 1 July snowfall 0.0 0.0  
Since 1 September snowfall 0.0 0.0  
Snow Depth 0.00 in    
Sea Level Pressure  
Sea Level Pressure 30.19 in    
Wind  
Wind Speed 0 mph (NE)    
Max Wind Speed 8 mph    
Max Gust Speed 12 mph    
Visibility 10 miles    
Events      
T = Trace of Precipitation, MM = Missing Value Source: NWS Daily Summary

Daily Weather History Graph

Daily Weather History Graph

Search for Another Location

Airport or City:

Trip Planner

Search our weather history database for the weather conditions in past years. The results will help you decide how hot, cold, wet, or windy it might be!

Date:

Astronomy

Oct. 23, 2014 Rise Set
Actual Time 7:49 AM EDT 6:45 PM EDT
Civil Twilight 7:22 AM EDT 7:12 PM EDT
Nautical Twilight 6:51 AM EDT 7:42 PM EDT
Astronomical Twilight 6:21 AM EDT 8:12 PM EDT
Moon 7:28 AM EDT (10/23) 6:46 PM EDT (10/23)
Length of Visible Light 11h 49m
Length of Day
10h 56m
Waning Crescent, 0% of the Moon is Illuminated
Oct 23
Waning Crescent
Oct 23
New
Oct 30
First Quarter
Nov 6
Full
Nov 14
Last Quarter

Hourly Weather History & Observations

Time (EDT) Temp. Windchill Dew Point Humidity Pressure Visibility Wind Dir Wind Speed Gust Speed Precip Events Conditions
12:53 AM 46.9 °F - 42.1 °F 83% 30.22 in 10.0 mi Calm Calm - N/A   Overcast
1:53 AM 46.9 °F - 39.9 °F 77% 30.22 in 10.0 mi Calm Calm - N/A   Overcast
2:53 AM 46.9 °F - 39.0 °F 74% 30.23 in 10.0 mi Calm Calm - N/A   Overcast
3:53 AM 46.0 °F - 39.0 °F 76% 30.22 in 10.0 mi Calm Calm - N/A   Overcast
4:53 AM 46.0 °F - 39.0 °F 76% 30.22 in 10.0 mi Calm Calm - N/A   Overcast
5:53 AM 46.0 °F - 39.0 °F 76% 30.22 in 10.0 mi Calm Calm - N/A   Overcast
6:53 AM 46.0 °F - 37.9 °F 73% 30.23 in 10.0 mi Calm Calm - N/A   Overcast
7:53 AM 45.0 °F - 39.0 °F 80% 30.23 in 10.0 mi Calm Calm - N/A   Overcast
8:53 AM 46.0 °F 43.9 °F 37.9 °F 73% 30.24 in 10.0 mi NW 4.6 mph - N/A   Overcast
9:05 AM 46.4 °F 45.2 °F 39.2 °F 76% 30.23 in 10.0 mi Variable 3.5 mph - N/A   Overcast
9:46 AM 48.9 °F - 41.0 °F 74% 30.23 in 10.0 mi Calm Calm - N/A   Overcast
9:53 AM 48.0 °F - 39.9 °F 74% 30.24 in 10.0 mi Calm Calm - N/A   Overcast
10:26 AM 50.0 °F - 39.9 °F 68% 30.24 in 10.0 mi Calm Calm - N/A   Overcast
10:53 AM 51.1 °F - 39.9 °F 66% 30.24 in 10.0 mi Calm Calm - N/A   Overcast
11:53 AM 52.0 °F - 39.0 °F 61% 30.24 in 10.0 mi Calm Calm - N/A   Overcast
12:53 PM 53.1 °F - 37.9 °F 57% 30.21 in 10.0 mi Calm Calm - N/A   Scattered Clouds
1:53 PM 55.9 °F - 39.0 °F 53% 30.18 in 10.0 mi Calm Calm - N/A   Partly Cloudy
2:53 PM 59.0 °F - 39.0 °F 48% 30.15 in 10.0 mi Calm Calm - N/A   Clear
3:53 PM 57.9 °F - 39.0 °F 49% 30.14 in 10.0 mi Calm Calm - N/A   Clear
4:53 PM 57.9 °F - 39.0 °F 49% 30.12 in 10.0 mi Calm Calm - N/A   Clear
5:53 PM 57.9 °F - 39.0 °F 49% 30.12 in 10.0 mi Calm Calm - N/A   Clear
6:53 PM 53.1 °F - 39.0 °F 59% 30.13 in 10.0 mi Calm Calm - N/A   Clear
7:53 PM 52.0 °F - 39.0 °F 61% 30.14 in 10.0 mi Calm Calm - N/A   Clear
8:53 PM 53.1 °F - 39.0 °F 59% 30.14 in 10.0 mi Calm Calm - N/A   Clear
9:53 PM 51.1 °F - 39.9 °F 66% 30.14 in 10.0 mi SE 3.5 mph - N/A   Clear
10:53 PM 48.9 °F - 39.9 °F 71% 30.13 in 10.0 mi Calm Calm - N/A   Clear
11:53 PM 46.9 °F - 39.9 °F 77% 30.13 in 10.0 mi Calm Calm - N/A   Clear